Location: Petruro
(41.0333°N, 14.7833°E)
Time: 08:17:09
(UTC+00:00)

Okean 3 Rocket - Pass Details

Date: 20 June 2021
Orbit: 616 x 644 km, 82.5° (Epoch: 02 August)

Event Time Altitude Azimuth Distance (km) Brightness Sun altitude
Exits shadow 01:32:35 22° 173° (S) 1,341 4.9 -16.7°
Maximum altitude 01:35:18 68° 95° (E) 668 3.8 -16.4°
Drops below altitude 10° 01:39:39 10° 13° (NNE) 1,986 7.2 -15.9°
Sets 01:41:54 0° 11° (N) 2,896 8.2 -15.7°
